Find Starlink 34788

NORAD ID: 65056 Int'l Des: 2025-165 Owner: SPXS Country: US Constellation: starlink operational
LEOCIRCULARRETROGRADESSO

当前视图

正在加载3D地球...

关于 Starlink 34788

正在加载描述...

即将过境

Passes for default location (London). Set your location on the main map for personalized predictions.

高度历史

Loading altitude history...

两行轨道根数

1 65056U 25165A 26149.72493357 .00003076 00000-0 21712-3 0 9995
2 65056 97.4267 226.6305 0002434 121.9344 238.2120 15.05654346 46984
Epoch: May 29, 2026 • Age: 20 hours

当前状态

高度 576.2 km
速度 7.57 km/s
星下点 -65.97°S, 148.72°E
发射日期 Jul 31, 2025
运行时间 0.8 years
类型 internet

技术详情

分类 Payload
质量 575.00 kg
干质量 530.00 kg
总质量 575.00 kg
长度 0.30 m
直径 4.10 m
跨度 29.00 m
形状 Box + pan
制造商 SPXS
平台类型 Starlink V2MO
阶段状态 In Orbit
所有者/国家 SPXS/US

Most Searched